Change the Weather History Date:

Tuesday, November 26, 2013

  Actual Average Record
Temperature  
Mean Temperature 44 °F -  
Max Temperature 50 °F 71 °F 84 °F (1998)
Min Temperature 39 °F 51 °F 37 °F (1996)
Degree Days  
Heating Degree Days 20    
Moisture  
Dew Point 38 °F    
Average Humidity 78    
Maximum Humidity 93    
Minimum Humidity 57    
Precipitation  
Precipitation 0.04 in - - ()
Sea Level Pressure  
Sea Level Pressure 30.24 in    
Wind  
Wind Speed 11 mph (NW)    
Max Wind Speed 26 mph    
Max Gust Speed 33 mph    
Visibility 10 miles    
Events Rain    
Averages and records for this station are not official NWS values.
T = Trace of Precipitation, MM = Missing Value Source: NWS Daily Summary

Daily Weather History Graph

Daily Weather History Graph

Search for Another Location

Airport or City:

Trip Planner

Search our weather history database for the weather conditions in past years. The results will help you decide how hot, cold, wet, or windy it might be!

Date:

Astronomy

Nov. 26, 2013 Rise Set
Actual Time 7:02 AM CST 5:36 PM CST
Civil Twilight 6:36 AM CST 6:02 PM CST
Nautical Twilight 6:08 AM CST 6:30 PM CST
Astronomical Twilight 5:39 AM CST 6:59 PM CST
Moon 12:40 AM CST (11/26) 1:13 PM CST (11/26)
Length of Visible Light 11h 25m
Length of Day
10h 34m
Last Quarter, 41% of the Moon is Illuminated
Nov 26
Last Quarter
Dec 2
New
Dec 9
First Quarter
Dec 17
Full
Dec 25
Last Quarter

Hourly Weather History & Observations

Time (CST) Temp. Windchill Dew Point Humidity Pressure Visibility Wind Dir Wind Speed Gust Speed Precip Events Conditions
12:11 AM 42.8 °F 37.5 °F 41.0 °F 93% 30.14 in 10.0 mi North 9.2 mph - 0.00 in Rain Light Rain
12:42 AM 44.6 °F 40.7 °F 41.0 °F 87% 30.15 in 10.0 mi NNW 6.9 mph - 0.00 in Rain Light Rain
12:53 AM 44.1 °F 40.1 °F 42.1 °F 93% 30.15 in 10.0 mi NNW 6.9 mph - 0.00 in Rain Light Rain
1:02 AM 44.6 °F 39.7 °F 42.8 °F 93% 30.17 in 10.0 mi NW 9.2 mph - 0.01 in Rain Light Rain
1:15 AM 44.6 °F 39.2 °F 41.0 °F 87% 30.16 in 10.0 mi NNW 10.4 mph - 0.03 in Rain Light Rain
1:53 AM 43.0 °F 38.8 °F 41.0 °F 93% 30.14 in 10.0 mi NNW 6.9 mph - 0.04 in   Overcast
2:53 AM 44.1 °F 37.7 °F 41.0 °F 89% 30.15 in 10.0 mi NW 12.7 mph - 0.00 in   Mostly Cloudy
3:53 AM 44.1 °F 37.7 °F 41.0 °F 89% 30.15 in 10.0 mi NNW 12.7 mph - N/A   Clear
4:53 AM 42.1 °F 36.6 °F 39.9 °F 92% 30.16 in 10.0 mi NW 9.2 mph - N/A   Scattered Clouds
5:53 AM 42.1 °F 36.6 °F 39.0 °F 89% 30.18 in 10.0 mi NNW 9.2 mph - N/A   Clear
6:53 AM 41.0 °F 33.9 °F 37.9 °F 89% 30.20 in 10.0 mi NNW 12.7 mph - N/A   Clear
7:53 AM 42.1 °F 38.4 °F 39.0 °F 89% 30.23 in 10.0 mi NNW 5.8 mph - N/A   Scattered Clouds
8:02 AM 42.8 °F 38.0 °F 39.2 °F 87% 30.23 in 10.0 mi NW 8.1 mph - N/A   Mostly Cloudy
8:24 AM 44.6 °F 40.2 °F 39.2 °F 81% 30.24 in 10.0 mi NNW 8.1 mph - N/A   Mostly Cloudy
8:53 AM 45.0 °F 39.3 °F 39.9 °F 82% 30.25 in 10.0 mi NNW 11.5 mph 20.7 mph N/A   Overcast
9:53 AM 46.9 °F - 37.9 °F 71% 30.27 in 10.0 mi NW 17.3 mph 23.0 mph N/A   Mostly Cloudy
10:12 AM 46.4 °F 39.5 °F 37.4 °F 71% 30.27 in 10.0 mi NNW 17.3 mph 26.5 mph N/A   Overcast
10:26 AM 48.2 °F - 37.4 °F 66% 30.28 in 10.0 mi NW 19.6 mph 29.9 mph N/A   Overcast
10:33 AM 46.4 °F 39.5 °F 37.4 °F 71% 30.28 in 10.0 mi NNW 17.3 mph 28.8 mph N/A   Overcast
10:53 AM 46.9 °F - 37.0 °F 68% 30.27 in 10.0 mi NW 23.0 mph 28.8 mph N/A   Overcast
11:12 AM 50.0 °F - 37.4 °F 62% 30.26 in 10.0 mi NNW 24.2 mph 33.4 mph N/A   Mostly Cloudy
11:53 AM 48.0 °F - 37.0 °F 66% 30.26 in 10.0 mi NNW 17.3 mph 25.3 mph N/A   Overcast
12:53 PM 50.0 °F - 36.0 °F 59% 30.23 in 10.0 mi NW 26.5 mph 32.2 mph N/A   Overcast
1:53 PM 50.0 °F - 35.1 °F 57% 30.23 in 10.0 mi NW 23.0 mph 31.1 mph N/A   Overcast
2:53 PM 50.0 °F - 36.0 °F 59% 30.22 in 10.0 mi NNW 20.7 mph 31.1 mph N/A   Overcast
3:53 PM 48.9 °F - 36.0 °F 61% 30.24 in 10.0 mi NNW 16.1 mph 23.0 mph N/A   Overcast
4:53 PM 48.9 °F - 35.1 °F 59% 30.26 in 10.0 mi NNW 19.6 mph 29.9 mph N/A   Partly Cloudy
5:53 PM 48.0 °F - 35.1 °F 61% 30.27 in 10.0 mi NNW 10.4 mph - N/A   Clear
6:53 PM 44.1 °F 40.8 °F 36.0 °F 73% 30.30 in 10.0 mi NW 5.8 mph - N/A   Clear
7:53 PM 43.0 °F 39.5 °F 36.0 °F 76% 30.32 in 10.0 mi WNW 5.8 mph - N/A   Clear
8:53 PM 43.0 °F 38.2 °F 36.0 °F 76% 30.32 in 10.0 mi WNW 8.1 mph - N/A   Clear
9:53 PM 42.1 °F 36.6 °F 36.0 °F 79% 30.34 in 10.0 mi NW 9.2 mph - N/A   Clear
10:53 PM 39.9 °F 36.7 °F 35.1 °F 83% 30.36 in 10.0 mi West 4.6 mph - N/A   Clear
11:53 PM 39.0 °F 35.7 °F 35.1 °F 86% 30.38 in 10.0 mi NW 4.6 mph - N/A   Clear